Location: Izdebno
(52.6670°N, 16.2170°E)
Time: 04:37:59
(UTC+02:00)

A-11 Canister half - Pass Details

Date: 15 February 2023
Orbit: 1526 x 1682 km, 47.3° (Epoch: 24 March)

Event Time Altitude Azimuth Distance (km) Brightness Sun altitude
Rises 07:44:28 0° 281° (W) 4,680 10.9 3.6°
Reaches altitude 10° 07:47:39 10° 276° (W) 3,698 10.5 4.1°
Maximum altitude 07:56:17 45° 208° (SSW) 2,003 9.8 5.2°
Drops below altitude 10° 08:05:03 10° 139° (SE) 3,754 12.8 6.4°
Sets 08:08:19 0° 134° (SE) 4,757 13.6 6.8°
